Home   Weather   Stephenville   Past weeks

Flag for Canada Past Weather in Stephenville, Newfoundland and Labrador, Canada — Yesterday and Last 2 Weeks

Now
25 °F

Snow flurries. Overcast.


Feels Like: 16 °F
Forecast: 24 / 28 °F
Wind: 8 mph from Northwest

Location: Stephenville

Current Time: Dec 6, 2016 at 12:41:06 pm

Latest Report: Dec 6, 2016 at 11:30 am


Visibility: 10 mi

Pressure: 29.77 "Hg

Humidity: 74%

Dew Point: 18 °F

Location of StephenvilleLocation

Past Weather in Stephenville — Graph

°F

Stephenville Temperature Yesterday

Maximum temperature yesterday: 27 °F (at 12:15 am)
Minimum temperature yesterday: 23 °F (at 9:30 pm)
Average temperature yesterday: 25 °F

High & Low Weather Summary for the Past Weeks

 TemperatureHumidityPressure
High57 °F (Nov 21, 3:23 pm)100% (Nov 21, 11:30 am)30.28 "Hg (Nov 21, 11:30 am)
Low21 °F (Dec 1, 7:30 am)55% (Nov 30, 11:30 am)28.97 "Hg (Nov 28, 2:30 am)
Average34 °F81%29.82 "Hg
* Reported Nov 21 11:30 am — Dec 6 11:30 am, Stephenville, Weather by CustomWeather, © 2016

Note: Actual official high and low records may vary slightly from our data, if they occured in-between our weather recording intervals... More about our weather records

Advertising

Stephenville Weather History for the Previous 24 Hours

Scroll right to see more
 ConditionsComfort  
Time TempWeatherWind HumidityBarometerVisibility
11:30 am
Tue, Dec 6
25 °FSnow flurries. Overcast.8 mph74%29.77 "Hg10 mi
10:30 am25 °FOvercast.12 mph74%29.78 "Hg12 mi
9:30 am25 °FSnow flurries. Overcast.10 mph74%29.78 "Hg12 mi
8:30 am25 °FSnow flurries. Mostly cloudy.8 mph74%29.77 "Hg15 mi
7:30 am25 °FSnow flurries. Mostly cloudy.9 mph74%29.77 "Hg15 mi
6:30 am25 °FSnow flurries. Passing clouds.7 mph74%29.77 "Hg15 mi
5:30 am25 °FSnow flurries. Passing clouds.10 mph74%29.77 "Hg15 mi
4:30 am27 °FPassing clouds.12 mph74%29.77 "Hg15 mi
3:30 am27 °FPassing clouds.8 mph74%29.77 "Hg15 mi
2:30 am27 °FSnow flurries. Passing clouds.6 mph74%29.77 "Hg15 mi
1:30 am25 °FSnow flurries. Passing clouds.3 mph80%29.77 "Hg15 mi
12:30 am21 °FSnow flurries. Passing clouds.2 mph93%29.78 "Hg15 mi
11:30 pm
Mon, Dec 5
23 °FSnow flurries. Overcast.2 mph93%29.80 "Hg6 mi
10:30 pm23 °FSnow flurries. Overcast.No wind93%29.80 "Hg8 mi
9:30 pm23 °FSnow flurries. Passing clouds.5 mph93%29.82 "Hg8 mi
8:30 pm25 °FSnow flurries. Passing clouds.5 mph80%29.83 "Hg15 mi
7:30 pm25 °FOvercast.3 mph69%29.83 "Hg15 mi
6:30 pm25 °FSnow flurries. Overcast.5 mph69%29.83 "Hg15 mi
5:30 pm25 °FSnow flurries. Mostly cloudy.2 mph74%29.83 "Hg11 mi
4:30 pm25 °FSnow flurries. Mostly cloudy.7 mph69%29.84 "Hg12 mi
3:30 pm25 °FSnow flurries. Mostly cloudy.5 mph74%29.84 "Hg12 mi
2:30 pm25 °FSnow flurries. Mostly cloudy.7 mph69%29.84 "Hg10 mi
1:30 pm25 °FSnow flurries. Broken clouds.8 mph63%29.83 "Hg15 mi
12:30 pm25 °FSnow flurries. Mostly cloudy.8 mph69%29.84 "Hg10 mi
Weather by CustomWeather, © 2016

See weather overviewHow to use our weather pages